EUTELSAT 172B (42741 NORAD) Tracking and Keplerian Element Data

This shows tracking and keplerian element data for the satellite.

Feedback or suggestion? Click here.




ElementValue
Catalog42741
NameEUTELSAT 172B
Epoch Orbit475
Epoch Day202.69056406
Epoch Year2018
RAAN49.5455
Inclination0.02
Eccentricity3.29E-05
Argument of Perigee16.1735
Mean Anonmoly294.2845
Mean Motion1.00271963
Decay Rate-2E-07
L11 42741U 17029B 18202.69056406 -.00000020 00000-0 00000+0 0 9998
L22 42741 0.0200 49.5455 0000329 16.1735 294.2845 1.00271963 4750

Live tracking and technical data element details for EUTELSAT 172B (NORAD 42741). EUTELSAT 172B can be tracked NOW for your location showing map with azimuth and elevation plus other details from your city location.

Track the satellite on the map from your city or location and see movement details for azimuth, elevation, latitude, longitude, range, height, and movement on the map or in text.







IsCatalogInMostPopularTable: catalog: 42741, numindb: 110
Update: records affected: 1



GetName: 42741 EUTELSAT 172B

Hit Count: updated at: Mon, 23 Jul 2018 07:39:43 GMT